[[{"header":{"parameterUnit":"m.s-1","parameterCategory":1,"la1":30.2991,"la2":30.254,"lo1":-89.0895,"lo2":-89.0444,"dy":0.0017,"dx":0.0017,"nx":28,"ny":28,"refTime":"2025-04-22T03:00:00:Z","depth":0,"parameterNumber":2,"parameterNumberName":"U-component_of_WINDS"},"data":[0,0,0,0,0,0,0,0,0,0,0,0,0,0,0,0,0,0,0,0,0,0,0,0,0,0,0,0,0,0,0,0,0,0,0,0,0,0,0,0,0,0,0,0,0,0,0,0,0,0,0,0,0,0,0,0,0,0,-1.2579,-1.258,0,-1.2589,-1.2589,-1.2589,-1.2575,-1.2574,-1.2573,-1.2573,-1.2585,-1.2585,-1.2586,0,0,0,0,0,0,0,0,0,0,0,0,0,-1.255,-1.255,-1.2579,-1.258,-1.258,-1.2589,-1.2589,-1.2589,-1.2575,-1.2574,-1.2573,-1.2573,-1.2584,-1.2585,-1.2586,0,0,0,0,0,0,0,0,0,0,0,0,0,-1.2561,-1.2551,-1.2579,-1.2573,-1.2573,-1.2589,-1.2589,-1.2589,-1.2575,-1.2574,-1.2573,-1.2572,-1.2584,-1.2585,-1.2586,-1.2609,0,0,-1.259,-1.2591,0,0,0,0,0,0,0,0,-1.2561,-1.2563,-1.2574,-1.2574,-1.2573,-1.258,-1.2583,-1.2596,-1.2575,-1.2574,-1.2573,-1.2572,-1.2584,-1.2585,-1.2589,-1.261,-1.2611,-1.259,-1.2591,-1.2591,-1.2592,0,0,0,0,0,0,0,-1.256,-1.2562,-1.2583,-1.2574,-1.2574,-1.2571,-1.2572,-1.2586,-1.2583,-1.2574,-1.2573,-1.2574,-1.2583,-1.2587,-1.2589,-1.2611,-1.259,-1.2591,-1.2592,-1.2592,-1.2652,-1.2653,0,0,0,0,0,0,-1.256,-1.2561,-1.2583,-1.2584,-1.2565,-1.2572,-1.2573,-1.2579,-1.2583,-1.2583,-1.2575,-1.2574,-1.2586,-1.2587,-1.2589,-1.2617,-1.2591,-1.2593,-1.2593,-1.2651,-1.2652,-1.2653,0,0,0,0,0,0,-1.2559,-1.2562,-1.2583,-1.2572,-1.2575,-1.2573,-1.258,-1.2579,-1.2583,-1.2584,-1.2583,-1.2579,-1.2585,-1.2587,-1.2605,-1.2617,-1.2593,-1.2594,-1.265,-1.2652,-1.2653,-1.2672,0,0,0,0,0,0,-1.2558,-1.2562,-1.257,-1.2573,-1.2575,-1.2597,-1.2581,-1.258,-1.2585,-1.2583,-1.2588,-1.2588,-1.2585,-1.2603,-1.2606,-1.2618,-1.2595,-1.2649,-1.2651,-1.2652,-1.267,-1.2674,-1.2677,0,0,0,0,0,-1.2557,-1.2575,-1.257,-1.2573,-1.2586,-1.2598,-1.26,-1.2595,-1.2586,-1.2595,-1.2595,-1.2588,-1.2615,-1.2605,-1.2608,-1.2621,-1.2648,-1.265,-1.2652,-1.2669,-1.2673,-1.2676,0,0,0,0,0,0,-1.2575,-1.2575,-1.257,-1.2589,-1.2594,-1.2596,-1.2606,-1.26,-1.2608,-1.2606,-1.2601,-1.2602,-1.262,-1.2622,-1.2611,-1.2644,-1.263,-1.2633,-1.2642,-1.2646,-1.2649,-1.2648,-1.2596,0,0,0,0,0,-1.2581,-1.259,-1.2591,-1.2607,-1.261,-1.2608,-1.2613,-1.2609,-1.2614,-1.2616,-1.2618,-1.2623,-1.2633,-1.2639,-1.2648,-1.267,-1.2671,-1.2681,-1.2684,-1.2687,-1.2689,-1.2701,-1.2706,-1.266,-1.266,-1.266,0,0,-1.2593,-1.2595,-1.2601,-1.2611,-1.2614,-1.2625,-1.2609,-1.2621,-1.2629,-1.2618,-1.2634,-1.2636,-1.2641,-1.2661,-1.267,-1.2663,-1.2702,-1.2689,-1.2691,-1.2692,-1.2704,-1.2708,-1.2712,-1.2661,-1.2661,-1.2661,0,0,-1.2621,-1.2623,-1.2638,-1.2641,-1.2646,-1.2644,-1.2648,-1.265,-1.2651,-1.2667,-1.2659,-1.2668,-1.2685,-1.269,-1.2694,-1.2724,-1.2718,-1.2728,-1.2745,-1.2757,-1.276,-1.2763,-1.2775,-1.2779,-1.273,-1.273,-1.273,0,-1.2637,-1.2652,-1.2646,-1.2658,-1.2663,-1.2653,-1.2668,-1.2671,-1.2679,-1.2683,-1.2675,-1.2696,-1.2699,-1.272,-1.2728,-1.2731,-1.2736,-1.2727,-1.276,-1.2763,-1.2766,-1.2777,-1.2781,-1.2731,-1.2731,-1.2731,-1.2731,0,-1.267,-1.2681,-1.2692,-1.2699,-1.2705,-1.2719,-1.2716,-1.2723,-1.2719,-1.2718,-1.2735,-1.2738,-1.2748,-1.2753,-1.2749,-1.2773,-1.2769,-1.2761,-1.2747,-1.2772,-1.2782,-1.2786,-1.2733,-1.2732,-1.2732,-1.2732,0,0,-1.271,-1.2713,-1.2718,-1.2721,-1.2725,-1.2734,-1.2747,-1.2756,-1.2762,-1.2768,-1.2779,-1.2794,-1.2786,-1.2792,-1.2788,-1.2799,-1.2823,-1.2789,-1.279,-1.2796,-1.285,-1.2856,-1.2861,-1.2819,-1.2819,-1.282,-1.285,0,-1.2738,-1.2761,-1.2756,-1.2778,-1.2788,-1.2779,-1.2791,-1.2795,-1.2795,-1.2804,-1.2804,-1.2815,-1.2804,-1.2807,-1.2817,-1.2818,-1.2834,-1.2816,-1.283,-1.283,-1.2829,-1.2866,-1.2873,-1.2901,-1.2854,-1.2854,-1.2855,0,-1.2774,-1.2781,-1.2804,-1.2807,-1.2811,-1.2821,-1.2829,-1.2838,-1.2843,-1.2842,-1.2848,-1.2842,-1.2857,-1.2843,-1.2862,-1.285,-1.2856,-1.2857,-1.2858,-1.2859,-1.2844,-1.2869,-1.2909,-1.2914,-1.2861,-1.286,-1.286,0,-1.2801,-1.2816,-1.2831,-1.2834,-1.2838,-1.2846,-1.2848,-1.2852,-1.2857,-1.2865,-1.2868,-1.2877,-1.2882,-1.289,-1.2887,-1.2878,-1.2908,-1.2894,-1.2908,-1.2908,-1.2915,-1.2914,-1.2957,-1.2918,-1.2918,-1.2918,-1.2918,0,-1.2834,-1.2848,-1.2844,-1.2853,-1.2869,-1.2864,-1.2881,-1.2882,-1.2885,-1.2896,-1.2888,-1.2898,-1.2894,-1.2904,-1.2902,-1.2919,-1.2921,-1.2922,-1.2921,-1.2923,-1.2923,-1.2926,-1.2924,-1.2919,-1.2919,-1.2919,-1.2918,0,-1.2867,-1.2864,-1.2881,-1.2882,-1.2883,-1.2895,-1.2897,-1.2906,-1.2906,-1.2919,-1.2922,-1.2921,-1.2932,-1.293,-1.2943,-1.2942,-1.2963,-1.296,-1.2961,-1.296,-1.2975,-1.2974,-1.3022,-1.3028,-1.2985,-1.2985,-1.2985,0,-1.2888,-1.2899,-1.2901,-1.2907,-1.291,-1.2919,-1.2925,-1.2921,-1.2927,-1.2933,-1.2942,-1.2953,-1.2961,-1.2979,-1.298,-1.299,-1.2987,-1.3003,-1.2989,-1.299,-1.2988,-1.2987,-1.2989,-1.3006,-1.3007,-1.3007,-1.3008,0,-1.2926,-1.2924,-1.2932,-1.2939,-1.2946,-1.2952,-1.2957,-1.2963,-1.2959,-1.2966,-1.2977,-1.2984,-1.2996,-1.3007,-1.3016,-1.3019,-1.3013,-1.3012,-1.3016,-1.3018,-1.3018,-1.3018,-1.2969,-1.3011,-1.3011,-1.3011,-1.301,-1.301,-1.2954,-1.2963,-1.2966,-1.2975,-1.2979,-1.2984,-1.2993,-1.2993,-1.3002,-1.3011,-1.3008,-1.3021,-1.3026,-1.3037,-1.3041,-1.3051,-1.3045,-1.3051,-1.3052,-1.3054,-1.3056,-1.3016,-1.3053,-1.3053,-1.3053,-1.3053,-1.3053,0,-1.2991,-1.2993,-1.3001,-1.3008,-1.3016,-1.3009,-1.3014,-1.3021,-1.3032,-1.3037,-1.3045,-1.3058,-1.3068,-1.307,-1.308,-1.3087,-1.3085,-1.309,-1.309,-1.3091,-1.306,-1.3056,-1.3092,-1.3092,-1.3092,-1.3092,-1.3092,-1.3092,-1.3012,-1.3027,-1.3026,-1.3043,-1.3044,-1.3056,-1.306,-1.3065,-1.3068,-1.3083,-1.3091,-1.3092,-1.3095,-1.3105,-1.3115,-1.3115,-1.3119,-1.3126,-1.3125,-1.3097,-1.3093,-1.3089,-1.3085,-1.3126,-1.3126,-1.3154,-1.3155,-1.3155]},{"header":{"parameterUnit":"m.s-1","parameterCategory":1,"la1":30.2991,"la2":30.254,"lo1":-89.0895,"lo2":-89.0444,"dy":0.0017,"dx":0.0017,"nx":28,"ny":28,"refTime":"2025-04-22T03:00:00:Z","depth":0,"parameterNumber":3,"parameterNumberName":"V-component_of_WINDS"},"data":[0,0,0,0,0,0,0,0,0,0,0,0,0,0,0,0,0,0,0,0,0,0,0,0,0,0,0,0,0,0,0,0,0,0,0,0,0,0,0,0,0,0,0,0,0,0,0,0,0,0,0,0,0,0,0,0,0,0,2.6956,2.6957,0,2.6991,2.6991,2.6991,2.6964,2.6963,2.6962,2.6961,2.6994,2.6996,2.6998,0,0,0,0,0,0,0,0,0,0,0,0,0,2.6866,2.6868,2.6956,2.6957,2.6957,2.699,2.6991,2.6991,2.6965,2.6963,2.6962,2.6961,2.6993,2.6995,2.6998,0,0,0,0,0,0,0,0,0,0,0,0,0,2.6903,2.6868,2.6956,2.6948,2.6948,2.699,2.6991,2.6992,2.6965,2.6963,2.6961,2.696,2.6992,2.6995,2.6998,2.705,0,0,2.7007,2.7008,0,0,0,0,0,0,0,0,2.6901,2.6907,2.6949,2.6949,2.6948,2.6972,2.6971,2.7011,2.6965,2.6958,2.6961,2.6959,2.6988,2.6991,2.7001,2.7052,2.7053,2.7007,2.7009,2.701,2.7011,0,0,0,0,0,0,0,2.6899,2.6905,2.697,2.6949,2.6949,2.6942,2.6945,2.6979,2.6982,2.6959,2.6957,2.6961,2.6987,2.6998,2.7001,2.7054,2.7007,2.701,2.7011,2.7013,2.715,2.7152,0,0,0,0,0,0,2.6897,2.6903,2.6969,2.6971,2.692,2.6945,2.6949,2.6966,2.6982,2.6982,2.6963,2.696,2.6994,2.6998,2.7002,2.7065,2.701,2.7013,2.7015,2.7148,2.715,2.7152,0,0,0,0,0,0,2.6895,2.6903,2.6967,2.6936,2.6944,2.6948,2.6968,2.6967,2.6978,2.6985,2.6985,2.6974,2.6993,2.6998,2.7039,2.7066,2.7014,2.7017,2.7146,2.7149,2.7151,2.7191,0,0,0,0,0,0,2.6893,2.6903,2.6923,2.6937,2.6946,2.7004,2.6969,2.6969,2.6984,2.698,2.6995,2.6996,2.6992,2.7035,2.7042,2.7069,2.7019,2.7143,2.7147,2.715,2.7187,2.7195,2.7201,0,0,0,0,0,2.689,2.6932,2.6924,2.6932,2.6971,2.7005,2.701,2.7006,2.6986,2.7006,2.701,2.6995,2.7062,2.7039,2.7047,2.7075,2.7141,2.7146,2.715,2.7184,2.7193,2.7201,0,0,0,0,0,0,2.692,2.6934,2.6925,2.6974,2.6989,2.7001,2.7026,2.7016,2.7036,2.7032,2.7025,2.7028,2.7071,2.7077,2.7051,2.7127,2.7098,2.7104,2.7122,2.713,2.7137,2.7135,2.7022,0,0,0,0,0,2.6933,2.696,2.697,2.7012,2.702,2.7022,2.7037,2.7032,2.7047,2.7053,2.706,2.7075,2.7099,2.7115,2.7137,2.7188,2.7191,2.7211,2.7218,2.7224,2.7229,2.7257,2.7267,2.7166,2.7166,2.7166,0,0,2.6959,2.6969,2.6987,2.7018,2.7029,2.7057,2.7027,2.7058,2.7079,2.7057,2.7096,2.7102,2.7118,2.7164,2.7184,2.717,2.7258,2.723,2.7234,2.7236,2.7263,2.7272,2.7281,2.7169,2.7169,2.7168,0,0,2.702,2.7031,2.7067,2.708,2.7097,2.7098,2.7107,2.7121,2.7125,2.7164,2.7149,2.7172,2.7214,2.7226,2.7238,2.7305,2.7292,2.7312,2.7349,2.7376,2.7384,2.7391,2.7416,2.7425,2.7318,2.7318,2.7318,0,2.705,2.7092,2.7087,2.712,2.7134,2.7117,2.7153,2.7165,2.7189,2.7199,2.7183,2.7236,2.7245,2.7294,2.731,2.732,2.733,2.7311,2.7384,2.7391,2.7397,2.742,2.7429,2.732,2.732,2.732,2.732,0,2.7128,2.7158,2.7185,2.721,2.7227,2.7261,2.7261,2.7279,2.7273,2.7276,2.7316,2.7327,2.7351,2.7363,2.7356,2.7411,2.7402,2.7385,2.7356,2.7409,2.7431,2.744,2.7324,2.7323,2.7322,2.7322,0,0,2.721,2.7232,2.7242,2.7253,2.7272,2.7294,2.7328,2.7353,2.7369,2.7386,2.7414,2.745,2.7435,2.7448,2.7443,2.7467,2.752,2.7447,2.7447,2.7461,2.7581,2.7594,2.7605,2.7511,2.7513,2.7514,2.758,0,2.7273,2.7332,2.7329,2.7384,2.7412,2.7396,2.7425,2.7439,2.7443,2.7466,2.7469,2.7496,2.7473,2.7481,2.7504,2.7509,2.7544,2.7504,2.7537,2.7538,2.7534,2.7616,2.7629,2.7691,2.7588,2.759,2.7591,0,2.7354,2.7375,2.7434,2.7449,2.746,2.7487,2.751,2.7532,2.7548,2.7549,2.7564,2.7556,2.7589,2.7559,2.7605,2.7578,2.7591,2.7596,2.7598,2.7601,2.7568,2.7622,2.7711,2.772,2.7604,2.7603,2.7602,0,2.7409,2.7452,2.7492,2.7502,2.7521,2.754,2.7548,2.7563,2.7578,2.7598,2.7608,2.7631,2.7644,2.7662,2.766,2.7638,2.7707,2.7677,2.7709,2.7709,2.7724,2.7723,2.7817,2.7732,2.7732,2.7732,2.7731,0,2.748,2.7516,2.7517,2.7542,2.7583,2.7579,2.7619,2.7625,2.7638,2.7663,2.7651,2.7675,2.767,2.7695,2.7693,2.7732,2.7737,2.7739,2.7738,2.774,2.774,2.7749,2.7745,2.7734,2.7734,2.7733,2.7733,0,2.7548,2.755,2.7593,2.7608,2.7612,2.7641,2.7653,2.7677,2.768,2.7712,2.772,2.7724,2.7752,2.7751,2.7782,2.7781,2.7829,2.7823,2.7824,2.7823,2.7855,2.7853,2.7959,2.7973,2.7878,2.7879,2.7879,0,2.7593,2.7621,2.7639,2.7656,2.7666,2.7693,2.7709,2.7706,2.7723,2.7744,2.7765,2.7792,2.7813,2.7858,2.7864,2.7888,2.7882,2.7918,2.7886,2.7888,2.7884,2.7883,2.7886,2.7924,2.7925,2.7926,2.7927,0,2.7674,2.7674,2.7698,2.7723,2.7743,2.7763,2.778,2.7795,2.7793,2.7813,2.7842,2.7859,2.7892,2.7918,2.7942,2.795,2.7939,2.7937,2.7946,2.7949,2.7949,2.795,2.7842,2.7935,2.7934,2.7933,2.7933,2.7933,2.7733,2.7757,2.7774,2.7802,2.7815,2.7832,2.7855,2.7861,2.7885,2.7912,2.7909,2.7941,2.7956,2.7987,2.7997,2.8022,2.8009,2.8022,2.8025,2.8028,2.8032,2.7944,2.8026,2.8026,2.8025,2.8025,2.8025,0,2.7814,2.7824,2.7849,2.7875,2.7897,2.7885,2.7904,2.7923,2.7952,2.7968,2.7989,2.8023,2.8049,2.8057,2.8082,2.81,2.8096,2.8107,2.8106,2.8108,2.8042,2.8032,2.811,2.811,2.811,2.811,2.811,2.811,2.7858,2.79,2.7901,2.7949,2.7958,2.7991,2.8003,2.8019,2.8031,2.8069,2.8092,2.8097,2.8109,2.8135,2.8159,2.816,2.817,2.8184,2.8183,2.8121,2.8113,2.8105,2.8095,2.8186,2.8186,2.8248,2.8249,2.8249]}]]